Location: Hermaringen
(48.5952°N, 10.2585°E)
Time: 02:08:12
(UTC+00:00)

Cosmos 1656 Rocket - Pass Details

Date: 18 November 2025
Orbit: 791 x 846 km, 71.1° (Epoch: 04 December)

Event Time Altitude Azimuth Distance (km) Brightness Sun altitude
Rises 17:59:50 0° 197° (SSW) 3,330 7.1 -23.5°
Reaches altitude 10° 18:02:14 10° 195° (SSW) 2,410 6.3 -23.9°
Maximum altitude 18:07:43 68° 113° (ESE) 894 3.5 -24.8°
Enters shadow 18:07:59 67° 94° (E) 902 3.5 -24.9°
